Regional Weather Roundup
Issued by NWS Jackson, KY

Home | Current Version | Previous Version | Text Only | Print | Product List | Glossary Off
Versions: 1 2 3 4 5 6 7 8 9 10 11 12 13 14 15 16 17 18 19 20 21 22 23 24 25 26 27 28 29 30 31 32 33 34 35 36 37 38 39 40 41 42 43 44 45 46 47 48 49 50

000
ASUS43 KJKL 220219
RWRJKL

EAST KENTUCKY HOURLY WEATHER ROUNDUP
NATIONAL WEATHER SERVICE JACKSON KY
1000 PM EDT MON JUL 21 2014

NOTE: "FAIR" INDICATES FEW OR NO CLOUDS BELOW 12,000 FEET WITH
NO SIGNIFICANT WEATHER AND/OR OBSTRUCTIONS TO VISIBILITY.

* THESE REPORTS ARE NOT UNDER NWS QUALITY CONTROL AND MAY NOT
  REPORT WEATHER SUCH AS PRECIPITATION AND FOG.

KYZ079-080-083-085-087-088-110-112-115-119-120-220300
...EASTERN KENTUCKY...

CITY           SKY/WX    TMP DP  RH WIND       PRES   REMARKS
JACKSON        PTCLDY    78  68  71 VRB3      30.12R
LONDON         PTCLDY    78  70  76 CALM      30.11R
SOMERSET*      CLEAR     77  68  73 CALM      30.10R
MONTICELLO*    CLEAR     73  71  93 CALM      30.10R
WILLIAMSBURG*    N/A     73  73 100 CALM      30.10
MIDDLESBORO*   CLOUDY    76  72  85 SW3       30.12R
HARLAN APT*    CLOUDY    72  70  94 MISG      30.14R
HAZARD APT*    CLEAR     77  70  78 CALM      30.12R
BLACK MTN*       N/A     64  64 100 S1          N/A
PIKEVILLE APT* PTCLDY    77  68  73 NE5       30.13R
BIG SANDY*     PTCLDY    74  71  88 CALM      30.12R
MOREHEAD APT*    N/A     77  72  83 CALM      30.13R
ASHLAND*       CLEAR     73  68  83 CALM      30.08R
$$

KYZ035-036-041-042-044-050-067-078-099-220300
...CENTRAL KENTUCKY...

CITY           SKY/WX    TMP DP  RH WIND       PRES   REMARKS
MT STERLING*   CLEAR     75  72  88 CALM      30.12R
FLEMING/MASON* CLEAR     77  70  79 E3        30.12R
DANVILLE*      CLEAR     73  68  83 CALM      30.10S
RICHMOND*      CLEAR     77  68  73 CALM      30.09R
LEXINGTON      PTCLDY    80  67  64 NE6       30.10R
FRANKFORT      CLEAR     75  68  78 N3        30.08R
$$

KYZ091>093-OHZ055-061-077-WVZ005-015-034-035-042-220300
...SOUTHERN OHIO/WEST VIRGINIA...

CITY           SKY/WX    TMP DP  RH WIND       PRES   REMARKS
COVINGTON      CLEAR     79  65  62 N6        30.09R
COLUMBUS       CLEAR     79  65  62 CALM      30.10R
DAYTON         CLEAR     76  65  68 N3        30.12R
WILMINGTON     CLEAR     73  67  81 NE3       30.11R
HUNTINGTON     LGT RAIN  75  72  90 CALM      30.09R
CHARLESTON     CLEAR     75  72  88 CALM      30.11R
PINEVILLE*     CLOUDY    74  71  92 MISG      30.22R
BECKLEY        CLOUDY    72  64  76 S12       30.21R
BLUEFIELD      CLOUDY    72  64  76 S5        30.24R
$$

VAZ002-007-008-TNZ017-027-036-066-071-220300
...SOUTHWEST VIRGINIA/EAST TENNESSEE...

CITY           SKY/WX    TMP DP  RH WIND       PRES   REMARKS
WISE*          DRIZZLE   72  64  78 CALM      30.23R
JONESVILLE*      N/A     75  72  88 CALM      30.16R
ABINGDON*      MOCLDY    73  67  80 E6        30.19R
BRISTOL        MOCLDY    75  64  68 CALM      30.16R
KNOXVILLE      CLOUDY    76  71  85 SW5       30.08R
OAK RIDGE      CLOUDY    79  73  82 CALM      30.10R
CROSSVILLE     MOCLDY    73  69  87 CALM      30.14R
NASHVILLE      PTCLDY    80  70  71 CALM      30.05S
$$

...KEY TO REMARKS...
VSB - VISIBILITY IN MILES
WCI - WIND CHILL INDEX
HX  - HEAT INDEX

$$


USA.gov is the U.S. government's official web portal to all federal, state and local government web resources and services.